Date String (YYYY-MM-DD hh:mm:ss) UTC,Instrument flags,absolute air pressure of the measurement (hPa),sample flow rate (lpm),inlet stack bypass flow (lpm),air temperature of the measurement (°C),ambient temperature measured by the external sensor (°C),aerosol sample conditioner tube jacket temperature (°C),OPC LED temperature (°C),internal box temperature (°C),relative humidity of the measurement (%),span deviation,mass concentration of particles derived from Lorenz-Mie calculation of OPC scattering (μg/m³),mass concentration of particles derived from Lorenz-Mie calculation of OPC scattering (μg/m³),mass concentration of particles derived from Lorenz-Mie calculation of OPC scattering (μg/m³)
DateTimeUTC,F1_M11,P_M11,Q1_M11,Q2_M11,T1_M11,T2_M11,T3_M11,T4_M11,T5_M11,U1_M11,ZSPAN_M11,X0_M11,X2_M11,X1_M11
2023-06-28 16:00:00,SystemResetWarning,0830.2,4.99,000.00,030.1,027.5,000.0,038.4,031.2,33.3,0001.7,0022.62,0009.38,0007.82
2023-06-28 16:01:00,SystemResetWarning,0830.1,5.01,000.00,030.1,027.7,000.0,038.4,031.2,33.7,0001.6,0022.87,0009.37,0007.83
2023-06-28 16:02:00,SystemResetWarning,0830.1,5.01,000.00,030.1,027.9,000.0,038.4,031.3,33.9,0001.9,0023.01,0009.44,0007.83
2023-06-28 16:03:00,SystemResetWarning,0830.1,4.99,000.00,030.2,028.1,000.0,038.5,031.4,33.0,0002.4,0022.30,0009.49,0007.87
2023-06-28 16:04:00,SystemResetWarning,0830.1,4.99,000.00,030.2,027.7,000.0,038.5,031.5,32.7,0002.2,0022.01,0009.54,0007.91
2023-06-28 16:05:00,SystemResetWarning,0830.1,5.00,000.00,030.2,025.9,000.0,038.4,031.4,32.8,0002.0,0020.85,0009.53,0007.96
2023-06-28 16:06:00,SystemResetWarning,0830.1,5.00,000.00,030.1,025.0,000.0,038.4,031.3,33.0,0002.1,0020.14,0009.54,0007.99
2023-06-28 16:07:00,SystemResetWarning,0830.1,5.00,000.00,030.1,025.1,000.0,038.3,031.1,33.5,0002.2,0019.35,0009.52,0008.02
2023-06-28 16:08:00,SystemResetWarning,0830.0,5.01,000.00,030.0,025.5,000.0,038.3,030.9,33.9,0002.0,0019.13,0009.57,0008.06
2023-06-28 16:09:00,SystemResetWarning,0830.0,4.99,000.00,029.9,025.9,000.0,038.3,030.9,33.7,0002.1,0018.47,0009.64,0008.11
2023-06-28 16:10:00,SystemResetWarning,0830.0,5.00,000.00,029.9,026.4,000.0,038.3,030.9,34.4,0002.1,0019.20,0009.73,0008.14
2023-06-28 16:11:00,SystemResetWarning,0830.0,4.99,000.00,029.9,026.8,000.0,038.3,031.0,35.3,0002.0,0019.82,0009.81,0008.18
2023-06-28 16:12:00,SystemResetWarning,0830.0,5.04,000.00,030.0,027.1,000.0,038.4,031.1,34.8,0002.3,0019.99,0009.82,0008.22
2023-06-28 16:13:00,SystemResetWarning,0830.0,4.96,000.00,030.2,027.4,000.0,038.4,031.2,33.6,0002.2,0020.68,0009.92,0008.26
2023-06-28 16:14:00,SystemResetWarning,0830.0,5.02,000.00,030.3,027.6,000.0,038.4,031.3,33.5,0001.8,0021.31,0009.97,0008.32
2023-06-28 16:15:00,SystemResetWarning,0830.1,5.01,000.00,030.4,027.8,000.0,038.4,031.3,33.4,0001.4,0022.24,0009.95,0008.34
2023-06-28 16:16:00,SystemResetWarning,0830.1,5.00,000.00,030.4,028.0,000.0,038.5,031.4,33.5,0001.5,0021.97,0010.00,0008.38
2023-06-28 16:17:00,SystemResetWarning,0830.1,4.99,000.00,030.4,028.0,000.0,038.5,031.4,33.0,0001.8,0022.75,0010.08,0008.41
2023-06-28 16:18:00,SystemResetWarning,0830.1,5.00,000.00,030.5,026.5,000.0,038.5,031.4,32.7,0002.0,0022.67,0010.15,0008.45
2023-06-28 16:19:00,SystemResetWarning,0830.0,5.00,000.00,030.5,025.1,000.0,038.4,031.3,33.1,0002.4,0023.12,0010.22,0008.49
2023-06-28 16:20:00,SystemResetWarning,0830.0,5.01,000.00,030.4,025.0,000.0,038.4,031.3,32.6,0002.4,0023.39,0010.26,0008.51
2023-06-28 16:21:00,SystemResetWarning,0830.0,5.01,000.00,030.3,025.3,000.0,038.4,031.0,33.0,0002.2,0023.26,0010.21,0008.51
2023-06-28 16:22:00,SystemResetWarning,0830.0,5.00,000.00,030.2,025.7,000.0,038.5,030.9,32.9,0002.3,0022.62,0010.20,0008.53
2023-06-28 16:23:00,SystemResetWarning,0830.0,4.98,000.00,030.2,026.2,000.0,038.5,030.9,33.2,0002.6,0022.79,0010.25,0008.56
2023-06-28 16:24:00,SystemResetWarning,0830.0,5.00,000.00,030.2,026.6,000.0,038.5,031.0,33.5,0002.9,0022.41,0010.21,0008.58
2023-06-28 16:25:00,SystemResetWarning,0830.0,5.01,000.00,030.2,027.0,000.0,038.5,031.1,33.5,0003.0,0022.29,0010.22,0008.58
2023-06-28 16:26:00,SystemResetWarning,0830.0,4.98,000.00,030.2,027.3,000.0,038.5,031.1,35.1,0003.0,0021.20,0010.26,0008.60
2023-06-28 16:27:00,SystemResetWarning,0830.0,5.04,000.00,030.3,027.6,000.0,038.5,031.2,34.2,0002.9,0020.77,0010.31,0008.61
2023-06-28 16:28:00,SystemResetWarning,0830.0,4.98,000.00,030.4,027.8,000.0,038.5,031.3,33.5,0002.9,0020.72,0010.35,0008.63
2023-06-28 16:29:00,SystemResetWarning,0830.0,5.02,000.00,030.4,028.0,000.0,038.6,031.4,33.2,0002.7,0020.67,0010.40,0008.65
2023-06-28 16:30:00,SystemResetWarning,0830.0,5.00,000.00,030.5,027.8,000.0,038.6,031.5,33.0,0002.7,0021.31,0010.44,0008.66
2023-06-28 16:31:00,SystemResetWarning,0830.1,4.99,000.00,030.5,026.1,000.0,038.5,031.5,32.9,0002.9,0020.93,0010.40,0008.67
2023-06-28 16:32:00,SystemResetWarning,0830.0,5.01,000.00,030.5,025.0,000.0,038.5,031.4,33.6,0003.2,0021.27,0010.44,0008.69
2023-06-28 16:33:00,SystemResetWarning,0830.0,5.00,000.00,030.4,025.0,000.0,038.5,031.2,34.1,0003.3,0022.24,0010.52,0008.72
2023-06-28 16:34:00,SystemResetWarning,0830.0,5.02,000.00,030.3,025.4,000.0,038.5,031.0,34.7,0003.1,0022.24,0010.55,0008.73
2023-06-28 16:35:00,SystemResetWarning,0830.0,4.97,000.00,030.4,025.8,000.0,038.5,031.0,33.3,0002.5,0022.59,0010.62,0008.74
2023-06-28 16:36:00,SystemResetWarning,0830.0,5.01,000.00,030.4,026.3,000.0,038.5,031.0,34.2,0002.2,0023.78,0010.64,0008.77
2023-06-28 16:37:00,SystemResetWarning,0830.0,5.01,000.00,030.4,026.7,000.0,038.6,031.1,33.8,0001.9,0024.10,0010.62,0008.78
2023-06-28 16:38:00,SystemResetWarning,0830.0,5.00,000.00,030.5,027.0,000.0,038.6,031.1,33.1,0001.8,0024.71,0010.60,0008.79
2023-06-28 16:39:00,SystemResetWarning,0830.0,5.00,000.00,030.5,027.4,000.0,038.6,031.2,32.9,0001.9,0024.94,0010.59,0008.80
2023-06-28 16:40:00,SystemResetWarning,0829.9,4.99,000.00,030.5,027.6,000.0,038.6,031.2,32.7,0001.7,0025.12,0010.57,0008.79
2023-06-28 16:41:00,SystemResetWarning,0830.0,5.00,000.00,030.5,027.8,000.0,038.7,031.3,33.1,0001.3,0024.59,0010.58,0008.79
2023-06-28 16:42:00,SystemResetWarning,0830.0,5.00,000.00,030.5,027.9,000.0,038.7,031.4,33.3,0001.0,0024.05,0010.66,0008.81
2023-06-28 16:43:00,SystemResetWarning,0830.0,5.00,000.00,030.6,026.5,000.0,038.6,031.4,33.0,0001.0,0024.24,0010.70,0008.81
2023-06-28 16:44:00,SystemResetWarning,0830.0,5.00,000.00,030.5,025.1,000.0,038.6,031.3,33.5,0000.7,0023.61,0010.61,0008.81
2023-06-28 16:45:00,SystemResetWarning,0829.9,5.01,000.00,030.5,024.9,000.0,038.6,031.3,33.8,0000.8,0024.39,0010.61,0008.83
2023-06-28 16:46:00,SystemResetWarning,0829.9,5.02,000.00,030.4,025.2,000.0,038.6,031.0,33.0,0001.5,0024.35,0010.62,0008.85
2023-06-28 16:47:00,SystemResetWarning,0830.0,5.01,000.00,030.3,025.7,000.0,038.6,031.0,33.8,0002.3,0023.77,0010.62,0008.85
2023-06-28 16:48:00,SystemResetWarning,0830.0,5.00,000.00,030.2,026.2,000.0,038.6,031.0,34.1,0002.7,0023.79,0010.62,0008.85
2023-06-28 16:49:00,SystemResetWarning,0830.0,5.00,000.00,030.2,026.6,000.0,038.6,031.0,34.0,0002.8,0023.67,0010.63,0008.82
2023-06-28 16:50:00,SystemResetWarning,0830.0,5.01,000.00,030.2,026.9,000.0,038.6,031.0,34.6,0002.9,0023.69,0010.60,0008.79
2023-06-28 16:51:00,SystemResetWarning,0830.0,4.98,000.00,030.2,027.2,000.0,038.6,031.1,34.6,0003.0,0023.42,0010.55,0008.75
2023-06-28 16:52:00,SystemResetWarning,0830.0,5.01,000.00,030.2,027.5,000.0,038.6,031.2,34.3,0003.5,0023.13,0010.51,0008.73
2023-06-28 16:53:00,SystemResetWarning,0830.0,5.00,000.00,030.3,027.7,000.0,038.6,031.3,33.7,0003.4,0023.78,0010.46,0008.71
2023-06-28 16:54:00,SystemResetWarning,0830.0,5.00,000.00,030.3,027.9,000.0,038.6,031.3,33.8,0003.3,0024.53,0010.46,0008.71
2023-06-28 16:55:00,SystemResetWarning,0830.0,4.98,000.00,030.4,026.9,000.0,038.5,031.4,34.3,0003.3,0024.83,0010.56,0008.75
2023-06-28 16:56:00,SystemResetWarning,0830.0,5.00,000.00,030.3,025.3,000.0,038.5,031.3,34.9,0003.1,0023.82,0010.57,0008.77
2023-06-28 16:57:00,SystemResetWarning,0830.0,5.03,000.00,030.4,024.8,000.0,038.4,031.3,33.7,0002.7,0023.96,0010.57,0008.78
2023-06-28 16:58:00,SystemResetWarning,0829.9,4.97,000.00,030.3,025.1,000.0,038.4,031.1,33.9,0002.2,0023.15,0010.57,0008.79
2023-06-28 16:59:00,SystemResetWarning,0829.9,5.01,000.00,030.2,025.5,000.0,038.4,030.9,33.3,0002.0,0023.20,0010.66,0008.82
